Theta_e
339 343 345 347 348 347 347 347 347 347 347 347 347 347 346 346 345 345 344 343 341 341 341 340 340 339 340 347 347 346 346 344 342 342 341 341 341 341 341 341 342 343 345 345 343 342 340 343 342 341 340 340 339 340 341 342 343 343 343 342 342 342 342 343 342 343 344 343 344 343 343 344 344 344 343 343 342 341 339 339 339 335 336 338 340
338 343 345 348 348 347 347 348 347 347 347 347 347 346 345 345 345 344 343 343 343 342 341 341 340 340 341 347 347 347 346 345 343 341 340 339 339 339 339 340 341 342 343 344 344 343 342 341 341 341 341 341 340 339 338 339 341 342 342 341 341 341 341 341 341 341 342 342 342 342 341 341 341 342 342 343 343 342 340 339 339 336 336 340 340
341 343 345 348 348 348 347 347 347 347 347 347 347 346 346 346 344 342 342 342 342 342 341 340 341 343 346 346 347 346 345 343 343 342 341 339 338 339 341 341 341 341 340 340 340 341 340 339 339 340 341 339 339 339 339 340 339 340 341 341 341 340 341 341 341 340 340 340 341 340 341 340 344 344 344 344 344 343 342 341 340 340 336 340 341
341 344 345 347 346 348 348 347 347 347 347 347 346 345 345 345 345 345 344 342 343 343 342 341 341 345 346 347 346 346 344 342 340 339 339 338 338 340 340 339 340 339 337 338 339 340 339 339 340 340 339 339 339 339 339 339 340 340 340 341 341 341 341 341 341 340 340 340 339 338 339 341 340 342 343 344 344 344 340 341 341 341 342 342 342
343 345 346 347 347 346 348 348 347 348 346 346 345 346 345 345 344 342 341 341 341 341 341 342 342 345 346 347 346 345 343 341 339 339 339 338 338 338 339 338 338 338 340 343 343 342 342 341 340 340 339 339 339 339 338 338 339 340 341 342 342 341 341 341 340 339 339 338 339 339 338 339 339 340 343 344 343 341 340 340 340 341 341 341 342
344 345 347 347 347 347 347 348 348 347 347 346 346 345 345 345 345 345 343 343 342 342 342 341 341 346 345 346 345 344 343 342 341 340 339 338 337 338 338 338 339 340 342 344 343 343 342 341 340 340 339 339 339 338 339 340 340 340 341 341 341 341 340 340 339 338 338 338 338 337 338 339 337 337 343 343 342 339 339 340 340 341 340 340 341
344 345 346 346 348 347 345 348 348 347 347 346 346 345 345 345 344 344 344 343 343 342 342 342 341 345 345 346 345 344 342 341 340 339 338 339 337 339 340 339 339 339 339 340 339 339 340 343 342 342 341 340 340 340 340 340 340 341 341 341 341 340 340 339 338 337 337 337 337 337 337 338 338 337 340 342 341 341 338 342 342 342 341 340 339
344 345 345 346 348 346 345 348 348 347 346 346 346 346 345 345 345 345 344 343 343 343 342 341 342 344 345 344 344 344 342 340 340 338 337 338 337 338 338 339 342 343 342 342 340 341 341 341 341 341 340 339 339 339 339 340 340 341 340 340 340 340 339 338 337 337 337 336 337 337 337 337 336 338 341 340 342 339 341 341 340 342 340 339 336
343 345 345 346 347 344 345 347 348 347 346 346 346 345 345 345 345 344 344 343 343 342 342 341 340 341 344 344 344 344 342 341 339 338 337 337 337 338 338 338 339 340 343 343 342 342 342 341 342 341 341 340 339 339 340 340 340 340 340 340 340 338 337 337 335 335 336 336 336 336 336 336 337 339 339 341 341 341 340 338 338 340 339 336 336
343 345 345 346 348 342 344 347 348 347 347 346 346 345 345 345 345 344 344 343 343 343 342 342 341 341 340 342 344 343 340 340 339 338 337 336 336 337 338 338 339 340 340 340 342 342 342 341 341 341 341 340 340 339 339 340 339 340 340 339 338 338 336 335 334 334 335 336 336 337 337 337 337 337 339 341 341 340 337 335 335 335 335 335 335
343 344 344 345 347 342 345 348 347 348 347 346 346 346 345 345 344 344 344 343 342 342 342 342 341 341 341 340 341 341 339 339 338 337 337 336 337 337 338 338 339 339 339 339 341 341 341 341 340 340 340 340 339 338 338 339 339 339 339 339 338 337 336 334 334 334 334 334 335 335 335 336 335 337 340 340 340 338 336 335 334 334 335 336 336
342 343 343 344 344 342 345 346 347 347 347 346 346 345 345 344 344 344 344 343 343 343 342 342 341 341 340 340 338 338 339 338 337 336 336 336 336 336 337 338 338 338 339 340 340 339 340 341 340 340 339 339 338 338 338 338 339 338 337 337 336 335 334 333 334 333 334 334 334 335 335 334 336 336 338 339 339 338 335 335 335 336 337 336 336
342 343 343 345 346 340 343 346 346 347 347 346 346 346 345 344 344 344 344 343 343 342 341 341 340 340 339 338 338 337 336 336 336 336 336 335 337 337 337 337 337 337 337 338 338 339 338 340 339 339 339 338 337 337 337 337 337 337 336 336 335 334 332 332 333 333 334 334 334 334 335 335 334 338 337 337 340 337 336 337 336 335 335 335 334
341 342 343 344 345 343 341 343 344 346 347 346 346 345 345 345 344 344 343 343 342 341 342 341 340 339 339 338 338 338 337 336 335 335 335 335 337 336 336 337 337 337 337 338 339 338 338 338 338 338 337 338 337 337 337 337 336 336 335 334 333 332 330 330 332 333 333 333 334 334 335 335 335 336 337 337 336 337 336 335 335 334 334 333 332
340 342 343 344 345 346 341 340 341 343 345 346 346 345 345 345 344 343 343 343 342 341 340 339 339 339 338 338 337 337 336 335 335 335 335 335 335 336 335 335 336 336 337 337 337 338 339 339 338 338 337 337 336 336 337 336 336 335 334 332 331 329 328 331 332 333 332 333 333 333 335 334 333 336 336 336 336 335 335 334 333 333 332 331 330
342 342 344 344 344 345 345 341 338 340 340 342 343 344 345 345 344 344 343 342 342 341 340 339 339 339 338 337 336 335 336 336 335 335 335 337 335 336 336 336 336 335 337 337 337 337 337 337 337 336 336 336 336 336 336 335 334 333 332 331 329 327 326 328 332 332 332 332 333 333 331 331 332 334 334 334 334 332 333 332 332 331 331 330 330
341 343 342 343 344 344 344 345 341 335 336 338 339 340 342 344 344 344 343 342 342 341 340 340 339 338 338 337 337 336 336 335 335 334 337 336 336 336 335 334 335 335 336 336 336 336 336 336 336 335 335 336 335 335 334 334 333 331 330 329 328 327 326 327 331 331 330 331 330 330 330 331 332 333 332 333 333 332 331 330 330 329 329 328 327
341 342 342 342 343 343 343 343 344 343 345 339 334 336 339 341 342 341 341 341 341 341 340 340 339 339 338 337 336 336 336 335 335 335 336 336 337 337 335 335 335 334 335 335 335 334 335 335 335 335 335 335 334 334 333 332 331 330 329 328 328 326 325 325 331 331 331 331 330 328 328 330 332 332 332 331 331 330 330 329 329 328 327 326 326
340 341 342 341 342 342 342 342 342 343 344 344 344 342 335 336 338 338 339 339 339 338 338 337 335 335 334 333 333 332 332 332 333 333 334 333 334 332 334 334 334 334 334 334 334 333 333 333 333 333 333 333 333 333 332 331 330 329 328 326 325 324 324 327 331 331 331 330 330 329 327 329 328 329 329 329 329 328 328 328 328 327 327 326 326
338 340 341 341 342 342 342 342 342 343 343 342 342 342 334 332 335 336 336 337 336 335 334 332 329 328 327 327 327 330 328 330 326 331 328 330 330 330 331 333 333 332 333 333 333 332 332 332 332 332 332 331 331 330 330 330 329 327 326 325 323 323 329 330 331 331 330 329 329 329 330 329 330 331 330 328 328 327 327 327 327 327 326 326 326
336 339 340 341 342 341 341 341 342 342 342 341 341 341 339 332 333 331 331 331 332 331 329 325 322 322 323 322 323 330 331 331 331 331 324 331 322 324 328 332 333 333 332 332 331 331 331 331 330 330 329 328 326 325 325 327 326 326 324 322 321 328 329 330 330 330 330 329 327 327 329 329 328 327 328 329 328 327 327 326 326 325 324 325 324
334 336 339 340 341 341 340 341 340 340 342 341 341 340 339 336 340 340 339 334 329 326 330 332 327 329 322 326 328 327 328 329 329 326 330 329 327 322 324 329 332 332 331 331 331 330 329 329 328 327 325 323 319 322 322 320 321 321 320 319 326 327 328 329 329 328 329 329 326 327 328 327 327 328 328 328 327 327 325 325 325 325 325 324 323
332 335 337 339 340 340 341 340 340 340 341 341 340 340 339 340 339 338 336 330 330 331 331 330 330 329 328 327 326 327 327 327 327 326 325 319 325 322 324 327 330 329 330 330 328 328 328 327 325 323 320 318 319 319 320 321 320 316 316 322 324 326 327 328 328 328 327 327 325 326 327 327 327 328 327 326 326 324 324 324 324 323 323 323 322
333 335 335 338 339 339 339 340 339 340 339 339 339 339 339 340 338 337 336 334 332 331 331 330 329 328 327 326 326 325 326 326 321 320 320 325 323 319 319 321 323 324 324 326 327 326 324 321 319 318 316 316 318 317 318 318 318 319 319 321 323 324 326 327 327 327 327 326 326 326 327 326 327 327 327 326 325 324 324 323 323 322 322 321 321
335 336 336 336 338 339 339 339 339 339 339 338 338 338 339 339 338 337 335 333 331 330 329 328 327 327 326 325 325 324 325 324 324 323 321 320 321 321 321 321 321 321 318 319 317 316 315 315 315 314 315 316 316 316 317 316 316 316 317 318 320 322 323 324 325 327 327 327 327 324 325 326 326 326 326 325 325 324 323 323 322 322 322 321 320
334 333 334 336 337 339 339 339 339 338 338 338 338 338 339 338 337 337 335 333 330 329 328 327 326 326 326 324 323 323 323 323 322 320 318 318 317 316 316 317 317 316 315 314 313 313 313 314 314 313 313 313 312 313 313 313 314 314 315 316 317 318 320 321 324 325 326 326 326 322 325 327 325 326 325 325 325 323 323 322 322 321 321 321 321
332 333 335 336 337 338 338 339 338 338 338 339 339 338 338 339 338 337 335 333 330 327 326 326 326 325 325 324 323 323 322 322 321 319 316 316 314 314 313 314 314 313 313 313 312 312 312 312 312 312 312 312 311 311 310 311 312 313 313 313 313 315 316 318 320 321 324 326 323 321 324 325 326 325 325 325 325 324 322 323 322 321 320 320 319
332 332 334 335 334 337 338 338 338 337 337 338 338 337 338 338 338 334 335 332 331 328 326 326 325 324 324 324 323 322 322 321 320 318 315 314 312 311 311 311 311 311 311 312 311 311 311 311 311 311 311 311 310 310 310 310 310 311 312 311 311 312 312 313 314 316 319 323 326 321 321 324 325 324 324 323 324 323 323 322 322 321 321 320 319
330 332 333 334 336 337 338 337 338 337 338 338 337 338 338 338 337 335 335 329 332 330 327 325 324 323 323 323 322 321 321 321 319 316 314 313 310 309 309 309 309 309 310 310 311 310 311 311 311 311 311 310 310 309 308 308 309 309 309 308 308 309 309 310 311 312 315 317 320 322 320 322 325 324 323 323 323 323 322 322 321 320 320 319 318
330 332 333 334 336 337 337 337 337 338 338 338 338 337 337 337 337 335 336 328 333 332 328 325 324 323 322 323 322 322 321 320 318 315 313 311 309 308 308 308 308 308 309 309 310 311 310 310 310 310 310 309 309 307 307 307 306 306 305 304 304 304 305 307 308 309 310 312 314 315 313 319 323 324 323 323 322 322 321 323 321 321 320 319 318
330 331 332 334 335 336 337 337 337 336 339 337 337 337 337 337 336 337 336 333 334 332 329 326 324 323 323 323 322 321 320 319 317 314 313 311 309 308 307 307 306 307 308 308 309 310 310 310 310 309 309 308 307 307 307 305 304 303 302 302 302 303 304 304 304 305 306 308 309 310 313 312 319 323 323 321 321 320 320 320 321 322 321 320 318
327 329 331 333 334 336 336 337 338 337 337 337 337 338 337 337 336 337 337 335 334 332 330 328 324 324 323 322 322 320 319 318 317 314 312 310 308 307 306 306 306 306 307 308 308 309 309 309 309 308 307 307 305 304 304 304 303 301 301 301 301 302 302 301 301 301 302 304 305 307 308 310 310 317 320 322 320 319 319 318 318 318 321 321 318
327 328 330 330 332 334 335 336 337 336 336 336 337 337 338 338 336 336 336 335 334 332 331 329 327 325 323 322 322 321 319 318 316 313 311 310 308 306 305 306 305 306 306 307 307 307 307 307 306 306 305 305 303 302 302 302 301 299 299 298 298 298 298 299 299 300 300 301 302 303 305 306 308 309 313 319 320 318 318 318 318 317 318 319 317
325 325 326 328 330 332 334 335 335 336 335 337 337 336 335 337 337 336 334 335 335 334 331 331 328 326 324 322 322 321 319 318 316 314 311 310 307 306 305 305 304 305 306 306 306 307 306 306 305 305 304 304 303 302 301 300 298 297 297 297 297 296 297 297 297 297 297 297 298 301 302 303 304 307 310 312 317 320 318 318 318 317 317 316 317
320 321 323 326 327 330 332 333 333 333 333 335 334 335 336 336 336 335 334 334 334 334 333 332 329 328 327 324 323 321 320 319 317 314 312 311 308 305 304 304 303 304 305 306 306 306 306 305 304 304 303 302 301 301 301 299 299 298 297 296 296 296 296 296 296 295 294 294 296 298 299 300 302 304 305 309 308 313 318 317 316 316 316 316 316
319 320 321 322 324 326 328 331 332 332 332 332 333 334 335 335 335 330 334 333 333 333 333 332 331 331 328 325 323 322 321 320 318 316 313 312 309 306 305 303 302 303 305 305 305 305 305 304 305 304 302 301 299 298 297 296 296 296 296 295 295 295 294 294 294 294 293 294 295 296 296 297 299 301 300 304 307 310 314 317 316 315 316 315 315
318 319 319 319 321 322 324 327 329 332 333 332 331 332 334 333 333 334 334 334 334 334 333 333 332 330 328 327 324 322 321 321 319 316 313 312 311 309 307 304 302 303 304 305 305 306 305 304 304 305 306 299 299 296 295 295 294 294 294 294 294 294 294 294 292 292 293 294 294 294 294 294 295 295 298 299 302 305 308 311 314 315 318 316 315
316 317 318 319 320 320 321 324 328 330 331 332 332 332 330 332 333 332 331 332 332 332 332 332 331 330 329 328 326 323 321 322 320 317 315 313 312 311 308 305 303 304 304 304 305 305 305 305 303 303 303 299 298 297 295 294 294 295 294 294 294 294 293 292 291 292 292 293 294 293 291 290 292 294 295 297 298 300 303 304 306 309 310 315 314
315 315 316 317 318 319 319 320 322 325 328 329 330 331 330 327 328 331 331 331 329 329 329 329 331 330 329 329 327 324 320 321 320 318 316 313 312 312 308 305 303 304 304 304 304 303 304 304 303 301 300 299 298 299 295 295 294 293 292 290 290 290 291 291 290 290 290 291 292 292 290 291 291 291 292 294 296 298 299 301 302 305 308 310 314
313 314 314 316 316 317 318 319 319 322 324 325 325 326 327 327 326 325 328 329 330 327 329 331 329 329 328 328 328 326 323 322 321 319 317 314 312 312 308 305 304 303 302 302 303 302 302 303 302 300 298 297 297 295 295 294 293 292 291 290 290 289 290 290 290 290 289 289 289 289 290 290 290 291 292 292 293 295 297 298 298 300 301 304 307
310 312 313 314 316 316 316 316 318 319 321 323 322 323 321 322 323 325 325 327 327 329 329 329 329 329 329 330 328 327 326 323 322 321 318 313 312 312 309 305 304 303 303 303 304 304 305 306 303 300 297 294 293 294 294 295 293 292 290 290 290 289 289 289 289 289 289 287 287 287 288 289 290 291 291 291 292 293 295 296 296 297 299 301 301
305 309 311 313 314 315 315 316 316 318 321 323 323 323 324 324 323 324 325 325 323 323 326 326 326 327 328 329 329 329 327 325 322 322 319 315 312 312 309 306 304 303 304 306 304 302 303 302 300 298 299 296 294 293 293 297 298 299 295 294 295 294 292 291 289 290 288 288 287 287 287 288 289 289 289 290 291 292 293 293 295 296 296 298 298
304 307 310 310 312 313 315 315 316 317 319 321 322 322 323 323 324 322 325 323 323 325 325 323 323 323 323 323 325 327 327 325 324 321 321 319 316 312 309 307 305 304 303 302 302 302 302 302 300 299 296 297 297 294 294 301 302 298 299 298 295 295 295 291 290 289 289 287 286 286 286 286 288 287 287 289 291 292 291 292 293 295 296 296 297
302 305 307 310 311 313 313 314 315 316 318 319 319 320 319 316 314 316 318 322 319 316 319 314 319 319 320 319 320 322 323 324 324 323 322 320 317 314 311 308 305 303 303 302 301 301 301 301 300 300 298 295 294 292 295 299 299 298 295 298 291 293 293 297 295 291 288 287 286 286 286 286 286 286 287 289 291 291 291 290 291 292 293 294 295
303 305 306 309 310 311 312 313 313 314 316 316 317 315 313 313 311 312 313 313 313 315 315 315 316 316 317 318 320 319 320 322 323 323 321 321 319 315 312 309 306 304 303 303 302 301 301 302 302 300 298 298 294 294 294 296 297 303 301 292 288 289 296 298 296 296 286 286 286 286 286 286 285 285 286 287 288 289 290 289 290 290 291 292 293
303 303 306 308 309 310 310 311 312 312 314 314 314 314 315 315 313 314 313 313 314 313 313 316 316 315 317 319 318 318 320 320 320 321 322 320 319 317 314 311 308 306 304 304 304 302 301 302 301 301 299 301 298 294 293 294 296 296 297 303 298 300 300 293 295 294 286 288 289 287 286 286 285 284 285 285 286 288 287 288 289 289 290 290 291
302 302 304 306 307 309 310 310 311 311 312 312 312 313 313 314 315 317 318 317 317 317 318 318 319 319 319 318 317 316 317 318 317 317 318 317 317 317 314 312 309 307 305 304 303 302 301 301 301 302 301 301 300 296 294 294 294 294 295 296 293 290 294 291 291 289 289 288 286 286 286 284 284 284 284 284 285 285 286 287 288 288 289 289 290
301 301 304 305 307 307 308 309 310 309 309 310 310 313 314 313 313 314 315 316 316 317 315 316 315 315 316 316 316 315 315 316 317 316 317 317 317 316 315 312 310 307 304 304 304 303 302 302 302 302 302 301 300 299 297 296 293 294 295 294 292 290 292 291 292 294 294 288 287 287 286 285 284 283 283 283 283 283 284 285 286 287 287 287 288
298 302 304 305 305 305 306 306 307 307 307 308 310 310 313 313 313 313 312 313 313 311 306 309 312 311 313 311 312 314 314 313 315 316 316 316 315 314 314 312 310 308 304 304 305 304 302 301 301 301 301 300 300 300 300 297 295 297 296 294 294 291 291 289 288 291 290 289 289 286 285 285 284 285 284 284 283 283 283 284 285 286 286 287 287
297 299 300 301 302 303 304 304 304 305 305 306 308 309 310 310 311 311 312 312 309 306 306 305 305 303 309 309 309 310 312 312 311 312 314 314 315 314 313 313 312 310 305 305 305 304 303 302 302 301 301 300 300 300 301 300 297 297 297 296 294 290 289 288 288 288 287 289 292 289 287 284 282 284 285 284 283 283 283 283 283 284 285 286 286
295 298 299 300 300 302 302 304 303 303 303 305 306 307 308 308 310 310 310 310 308 307 304 303 302 302 305 306 306 308 309 310 310 310 310 312 313 314 314 313 312 310 307 306 305 304 303 302 301 301 300 300 300 300 299 299 298 297 297 296 295 294 293 293 294 288 289 288 286 287 286 286 286 286 287 287 284 283 282 282 282 283 284 284 285
Wind_Speed
5 7 4 6 8 10 12 12 12 12 12 13 13 13 13 13 12 12 12 12 13 14 13 12 13 11 12 16 14 15 17 16 15 15 14 14 16 17 16 16 15 16 17 17 17 18 17 19 18 19 19 18 17 16 17 18 19 19 19 19 19 19 19 18 19 19 19 21 22 21 20 20 21 21 21 21 20 21 17 18 17 16 15 18 22
9 7 4 5 7 10 11 12 12 12 12 13 13 13 12 12 12 11 12 12 12 13 13 13 13 12 13 14 15 15 17 17 15 15 15 15 16 16 15 16 15 16 17 17 18 20 19 17 18 19 19 18 18 18 17 18 19 19 19 19 18 18 17 17 17 16 17 17 19 20 21 20 19 20 21 22 21 19 16 18 18 16 14 21 22
8 7 5 7 8 10 11 11 12 12 12 12 13 13 12 11 12 12 12 11 12 13 13 12 12 11 12 15 16 15 18 17 15 15 15 16 16 17 15 15 16 15 16 17 19 19 20 18 18 17 18 18 19 19 19 19 19 19 19 19 18 17 17 17 17 16 15 14 14 18 17 20 21 20 21 21 22 21 16 18 17 17 16 24 21
10 7 5 7 8 8 10 11 12 12 12 12 12 12 11 12 12 12 12 11 11 11 11 10 9 13 13 14 15 17 18 17 16 15 16 15 16 16 14 16 16 16 16 16 17 18 18 18 17 18 18 18 18 19 19 19 19 18 19 19 18 18 18 17 17 16 15 14 12 9 8 13 16 21 22 23 23 23 21 23 23 24 24 23 25
10 8 6 7 8 8 9 11 12 12 12 12 12 11 11 11 11 12 11 11 12 12 11 10 11 13 13 14 15 16 18 17 16 15 15 16 17 17 15 15 16 16 16 18 18 18 17 18 18 18 17 18 18 18 18 18 19 19 19 19 18 18 18 17 17 16 14 13 10 11 13 15 13 20 21 23 23 21 22 24 24 24 25 26 25
10 9 8 7 8 9 9 12 13 12 12 12 12 11 10 11 11 12 11 10 11 11 11 11 11 14 13 15 15 13 16 17 17 16 16 15 15 15 14 15 16 16 17 18 18 18 18 17 18 18 18 18 17 18 19 18 18 19 19 20 20 19 18 17 16 15 14 13 13 13 14 13 13 13 23 23 22 20 24 25 24 24 24 26 25
11 8 7 8 6 9 9 12 13 12 12 12 11 11 10 10 10 11 11 10 9 10 10 10 10 14 14 15 14 14 17 16 17 16 16 15 15 15 14 13 13 13 14 15 16 17 17 18 18 19 18 17 18 18 17 19 19 19 19 20 20 19 18 17 16 16 13 10 10 12 12 14 13 12 22 22 21 24 23 24 25 24 25 24 24
9 7 8 5 5 7 9 11 12 12 12 12 11 11 10 10 10 11 11 10 10 10 10 9 9 14 14 15 15 15 16 16 15 15 15 14 15 15 14 13 16 15 14 15 16 15 17 18 18 19 18 17 17 17 18 18 19 20 20 20 19 19 18 17 16 14 12 13 12 11 11 13 14 11 21 22 24 22 24 25 24 24 24 24 20
9 8 8 6 7 9 9 10 12 13 13 12 11 10 10 10 10 10 11 11 10 10 10 9 8 11 15 15 14 15 16 15 15 14 14 15 15 14 13 13 13 15 17 16 15 16 17 18 18 18 17 17 16 16 17 18 19 19 19 19 18 18 16 16 14 11 13 12 13 12 13 14 14 13 21 26 26 24 23 20 23 25 24 22 24
8 7 7 6 7 10 9 10 12 12 12 12 11 10 10 10 10 10 11 10 10 10 10 9 9 9 11 14 15 16 16 14 14 14 13 14 14 14 14 13 13 14 13 15 17 17 18 17 18 17 17 17 17 16 16 18 19 19 19 19 19 17 16 14 12 12 12 14 14 14 12 14 14 14 21 25 26 25 24 22 18 18 20 24 26
9 7 6 7 9 9 9 9 10 11 12 12 11 10 10 10 10 10 10 11 10 10 10 10 10 10 11 12 14 15 13 13 12 12 13 13 14 13 13 14 13 13 13 14 15 16 17 17 17 17 17 16 16 16 17 18 19 19 19 19 18 17 16 13 13 13 13 13 14 13 13 14 13 13 23 26 26 25 22 23 22 21 24 25 25
9 5 6 6 8 9 8 9 10 12 12 11 11 10 9 9 9 10 10 10 11 11 11 11 11 11 11 11 12 12 13 12 12 12 12 12 14 13 13 13 12 13 15 15 15 15 16 16 16 16 16 16 16 17 17 17 19 19 20 18 17 16 16 14 11 13 14 14 12 13 13 14 14 16 24 24 25 24 23 23 23 24 24 24 25
9 6 6 6 8 8 8 8 9 10 11 11 11 10 9 9 9 9 10 11 11 11 11 11 11 11 11 11 11 12 12 12 11 11 11 12 14 13 12 13 12 11 12 14 14 14 14 15 15 15 15 16 16 16 16 17 18 18 18 17 16 15 14 13 12 13 12 12 12 12 11 11 11 19 23 23 24 23 24 24 24 23 23 24 25
9 6 6 6 7 7 8 8 8 9 10 11 11 11 10 9 9 9 10 11 11 11 11 12 12 12 11 11 12 12 13 13 12 11 11 12 15 13 12 12 12 13 14 14 14 14 14 14 15 15 16 16 16 16 16 16 17 17 16 15 14 14 12 10 11 11 12 12 10 9 8 9 10 20 20 21 22 23 22 24 24 25 24 25 24
10 7 6 6 7 7 8 8 8 8 8 9 10 10 10 9 9 9 9 10 10 10 11 11 11 11 11 11 11 11 12 12 11 10 10 11 13 13 12 12 12 13 12 13 14 15 15 16 16 16 16 16 16 17 17 17 17 16 14 14 13 11 10 8 7 8 9 8 7 7 4 9 17 20 22 22 22 22 23 23 23 24 25 24 24
9 9 6 7 7 5 6 7 8 8 7 8 9 9 9 8 8 9 9 10 10 10 10 11 12 11 11 11 11 11 11 12 11 10 8 9 12 14 12 11 11 12 14 14 14 14 15 15 15 15 16 16 16 16 16 17 16 15 14 13 12 11 10 8 8 8 8 7 7 8 10 11 18 19 20 21 20 20 20 21 23 23 22 25 25
8 7 8 7 7 4 5 7 6 7 7 8 8 8 9 7 8 9 8 9 10 10 10 11 11 11 11 10 10 10 10 10 11 9 5 7 13 14 12 12 12 12 13 14 14 14 15 15 15 15 16 16 16 17 17 15 15 14 14 13 12 11 11 10 7 8 8 8 7 8 10 10 16 19 20 19 20 20 21 22 23 23 22 21 21
8 8 7 8 7 5 4 5 6 4 5 6 7 8 9 8 8 8 7 8 9 9 8 8 9 10 9 10 9 9 9 9 9 8 5 6 10 12 12 12 12 12 14 14 14 14 14 15 15 15 15 16 16 17 16 15 14 14 13 13 11 12 11 10 7 7 7 8 9 9 9 13 20 19 19 19 19 19 21 22 22 21 21 21 21
7 8 7 8 8 5 5 5 6 6 6 4 3 6 8 8 9 8 7 8 8 8 8 8 10 10 10 10 9 9 8 8 7 6 5 7 10 11 11 10 12 12 13 14 14 14 14 14 15 15 15 16 16 15 15 14 14 14 13 12 11 12 11 8 7 7 7 8 10 10 11 17 17 17 19 18 18 19 19 21 21 20 21 22 21
8 8 7 8 7 6 5 5 6 6 6 4 4 4 6 8 9 8 8 8 8 9 9 9 10 10 11 11 10 9 8 7 8 6 7 8 9 9 10 10 12 12 13 13 13 13 13 13 14 15 16 16 16 14 13 13 14 13 12 10 11 10 7 6 7 7 9 9 10 11 14 17 20 20 19 19 19 19 20 19 20 21 21 22 21
7 8 8 8 7 6 6 5 6 8 7 6 5 6 6 8 7 8 9 8 9 9 10 10 9 9 9 9 9 6 5 4 5 4 5 5 6 8 8 8 11 11 12 13 13 13 12 13 13 14 15 15 15 15 11 12 12 12 11 10 11 7 6 6 7 7 7 7 9 10 14 16 17 17 17 19 19 19 19 20 20 20 19 19 19
8 8 8 8 8 7 7 6 6 7 8 6 5 5 5 7 8 7 7 7 7 8 7 6 6 5 8 6 5 4 4 3 4 4 4 5 6 9 9 8 9 10 11 13 13 12 12 13 14 15 14 13 10 6 7 10 11 10 9 10 7 6 5 5 5 5 5 6 10 11 15 17 17 18 18 18 18 18 19 19 19 19 20 19 19
9 9 8 8 8 7 6 7 7 6 8 7 5 5 6 6 7 7 6 7 7 7 6 7 6 5 4 5 4 3 4 4 3 4 4 6 8 9 9 8 8 10 11 12 12 13 13 13 13 13 13 10 6 5 5 4 5 8 7 6 5 5 5 4 5 5 5 7 10 13 14 16 17 17 18 17 18 18 17 17 17 18 18 18 18
10 10 8 6 7 8 8 7 8 7 7 7 5 5 6 6 6 6 7 6 6 6 6 7 6 6 5 4 4 4 4 3 6 8 7 5 6 10 11 11 11 10 11 9 12 12 12 12 13 11 8 4 5 4 4 4 4 3 3 3 4 4 5 4 4 5 6 7 7 11 17 17 18 17 17 18 18 18 17 18 18 17 17 18 17
7 7 6 7 8 8 7 7 7 6 7 6 6 6 5 5 5 6 6 6 5 6 5 6 6 7 6 4 4 4 4 4 3 4 3 4 4 4 4 4 4 5 8 6 5 5 4 4 5 6 5 5 5 4 4 5 4 4 4 3 3 3 4 3 3 4 5 7 8 13 13 14 16 16 16 17 16 17 17 17 17 16 16 16 17
5 7 8 8 8 8 8 6 8 8 7 6 6 6 7 6 6 6 6 6 5 6 5 6 6 6 7 6 5 5 4 4 4 4 4 4 4 4 3 3 4 5 4 4 4 3 3 4 5 5 4 4 5 4 4 4 4 4 4 4 3 3 3 3 3 4 5 6 8 11 7 13 15 16 16 16 16 16 16 16 16 16 16 17 16
8 9 7 7 7 8 8 7 8 7 9 6 6 6 7 5 6 6 6 5 5 6 6 5 6 7 7 6 6 5 4 4 4 4 4 3 4 4 4 3 4 4 3 4 4 3 3 4 4 5 4 5 5 4 4 5 4 5 4 4 3 3 3 2 3 3 3 4 5 8 10 11 16 17 16 17 17 16 15 15 15 14 14 14 15
7 8 8 7 6 9 9 9 8 8 8 9 8 7 6 7 6 7 8 7 7 6 5 6 5 6 7 5 5 5 6 5 4 4 4 3 4 4 4 4 4 4 3 3 5 4 3 4 4 5 5 4 5 4 3 4 4 4 5 4 3 3 3 3 2 2 2 2 5 9 10 11 11 14 14 14 14 14 14 13 13 14 13 14 14
10 10 9 9 9 8 10 10 9 9 8 8 9 8 7 7 6 7 8 8 7 6 5 5 6 6 6 7 6 6 5 5 5 4 4 4 4 4 4 4 4 4 4 4 3 5 4 4 4 4 4 5 4 4 3 3 4 4 4 4 3 3 3 3 3 2 2 2 2 5 10 10 12 13 14 14 14 14 14 14 14 13 12 14 13
11 10 9 9 8 9 10 11 11 9 7 8 7 7 8 9 8 7 6 8 8 8 8 5 5 7 6 6 5 4 6 6 6 4 5 5 4 3 3 4 4 4 4 5 3 4 5 4 4 4 4 4 4 3 3 4 4 3 3 4 3 3 2 2 2 2 2 2 2 3 5 7 11 15 14 14 13 13 12 16 15 14 13 12 13
9 10 10 9 8 10 11 10 10 11 8 8 8 8 7 8 7 8 8 6 7 7 7 7 6 5 6 8 6 4 4 5 5 5 4 5 4 4 4 3 4 4 4 4 4 4 4 4 4 4 4 4 4 3 3 4 4 4 3 3 3 3 3 2 2 2 3 3 2 2 4 7 5 9 10 13 13 12 12 13 15 16 15 13 13
12 12 9 8 8 10 11 11 11 9 10 10 7 8 8 8 8 9 8 10 10 9 8 8 7 7 6 7 7 5 5 5 6 5 5 5 5 4 4 4 4 4 4 4 5 4 4 4 4 3 3 3 4 3 3 4 4 3 2 4 3 3 2 1 2 2 3 3 3 2 3 3 7 5 6 7 11 9 11 11 11 11 14 16 13
11 9 9 9 10 10 10 10 11 11 11 11 9 9 9 9 7 7 9 7 6 7 8 9 8 8 8 7 7 6 5 6 6 5 5 4 5 5 4 4 4 4 4 5 6 5 5 5 5 4 4 3 4 3 3 3 4 3 2 3 2 3 2 2 2 2 3 3 3 3 2 3 3 6 5 9 8 8 9 9 9 10 12 13 12
9 8 9 12 10 7 7 7 9 10 9 9 10 7 6 8 8 6 5 8 10 10 9 8 9 8 9 10 8 8 7 6 6 6 5 4 4 5 6 5 5 5 5 6 6 5 5 6 6 5 4 4 4 3 3 3 2 2 3 3 3 3 2 3 3 3 3 3 3 3 2 2 2 2 3 4 7 11 11 11 12 12 10 11 11
7 9 13 12 11 11 8 7 9 10 10 10 10 10 7 6 6 5 5 7 7 8 8 8 8 9 9 10 11 9 10 10 9 8 8 6 6 5 5 5 6 6 7 6 6 5 5 6 6 6 5 3 3 4 3 3 3 3 2 2 3 3 3 2 2 2 2 2 2 3 2 1 1 1 2 1 4 3 8 10 10 11 12 11 11
12 11 9 9 12 12 11 11 9 12 12 12 11 11 10 9 6 6 5 5 6 5 6 8 8 8 8 8 9 9 9 8 7 8 8 8 7 7 6 6 7 7 7 7 6 7 6 6 6 7 8 5 5 4 3 3 3 3 2 2 2 2 3 2 2 2 2 1 2 2 2 2 1 2 1 1 1 4 4 8 10 11 12 13 13
10 9 11 10 11 11 11 13 14 13 11 10 8 7 8 9 9 8 8 6 6 7 6 4 6 8 8 9 10 11 9 11 9 8 7 8 8 8 8 10 9 7 9 8 8 7 8 7 6 5 5 6 6 6 4 3 3 3 2 2 2 1 2 2 1 1 0 1 1 0 1 2 2 1 1 1 1 1 5 8 7 6 2 12 15
9 10 10 11 12 10 11 12 11 11 10 11 10 7 3 6 8 8 7 6 7 6 5 5 6 8 8 9 10 11 11 10 9 9 8 9 8 7 6 7 8 8 8 9 8 7 6 8 9 8 6 7 7 8 7 5 4 3 2 2 3 3 3 1 1 0 0 1 1 0 1 1 1 1 0 1 1 1 1 4 5 5 7 6 8
9 10 9 9 8 9 9 10 11 10 9 8 9 10 8 4 2 5 6 6 5 4 5 4 4 6 9 9 8 9 8 9 10 10 9 8 7 8 8 9 5 5 5 7 7 7 6 5 6 7 3 3 4 4 5 6 5 3 3 3 3 3 3 4 3 2 0 0 0 1 1 2 2 1 1 0 1 1 1 1 1 1 3 6 8
9 9 10 9 10 9 9 8 9 9 8 6 5 7 8 9 7 4 5 8 8 6 5 6 5 4 5 8 8 9 9 10 10 10 9 7 7 6 8 8 9 8 7 8 9 9 9 10 9 10 9 6 4 5 5 6 5 5 3 3 2 2 2 2 3 3 3 1 1 1 1 1 2 2 2 1 0 1 1 1 1 1 1 4 6
9 10 11 12 12 11 9 11 9 8 9 9 7 8 8 8 7 9 10 9 9 8 7 6 6 6 6 6 7 7 10 11 11 10 10 8 7 6 6 8 8 8 8 8 6 7 6 5 3 3 9 8 5 5 5 5 8 3 2 1 1 1 1 1 3 3 3 2 1 1 1 2 1 2 2 2 1 1 0 1 1 1 1 1 2
10 10 13 13 10 9 11 9 7 9 10 11 9 8 8 9 9 9 8 7 6 7 8 7 8 7 7 6 7 8 9 10 10 11 10 10 9 9 9 9 10 10 10 6 5 7 9 7 6 5 4 7 7 9 7 9 4 8 8 4 3 3 4 3 4 5 3 3 2 2 1 2 3 2 2 2 1 1 1 1 1 1 1 2 2
8 12 10 8 9 10 9 9 9 10 9 9 9 9 8 7 7 4 6 4 4 5 6 6 6 6 6 5 4 5 7 8 9 9 10 12 13 10 9 8 9 8 8 10 9 9 7 9 12 11 8 2 1 7 13 13 8 4 3 5 5 7 5 4 7 8 5 3 2 3 2 3 3 2 2 3 3 2 2 2 2 2 2 2 2
6 7 8 10 8 9 9 9 9 9 9 9 9 6 5 4 3 3 2 4 3 2 2 1 4 4 6 4 3 4 4 6 7 9 9 9 9 9 9 10 10 10 10 10 11 12 11 11 11 11 10 9 5 9 9 9 4 12 6 6 3 3 2 13 13 7 6 7 6 5 3 4 3 3 3 4 4 3 3 3 3 3 3 2 2
7 7 8 9 8 10 9 9 8 9 8 8 9 7 6 5 4 4 4 4 3 3 3 4 5 5 3 5 7 6 4 4 4 6 7 8 9 9 8 9 9 10 10 9 9 12 12 11 10 10 13 13 11 5 7 10 9 7 4 6 2 1 12 2 6 8 4 6 7 6 5 4 4 4 4 5 4 4 4 4 4 3 4 3 3
7 6 6 7 8 8 8 8 7 8 9 9 10 9 9 9 7 7 6 5 6 5 7 9 7 7 9 4 3 5 6 5 5 5 5 7 10 11 11 11 12 11 10 10 10 9 10 12 13 12 12 10 10 8 10 10 9 11 10 3 1 4 5 4 5 7 2 9 3 7 7 7 7 5 4 5 6 6 4 5 4 4 4 4 4
6 5 6 7 8 8 9 9 9 8 8 8 9 8 8 8 10 10 10 10 10 8 7 5 6 6 5 5 5 4 5 5 5 5 4 3 4 6 8 9 9 9 9 8 9 11 10 11 10 11 11 9 8 11 13 12 8 10 12 8 1 1 1 7 8 3 4 3 6 6 6 8 7 5 6 6 5 5 5 5 5 5 4 4 4
6 6 7 7 9 9 9 9 7 7 6 7 9 9 10 9 9 10 9 9 10 9 8 7 4 3 4 5 5 5 5 6 6 6 6 6 6 6 6 8 9 10 10 10 12 11 9 10 13 13 9 9 11 12 12 9 15 15 13 11 6 2 2 4 2 7 3 3 5 2 3 6 6 7 7 7 7 6 6 6 6 6 5 5 5
5 6 6 6 6 6 6 6 6 6 7 9 9 9 9 10 10 9 9 8 7 5 3 3 5 4 6 5 5 6 6 6 6 7 6 6 6 5 6 7 7 7 7 9 10 10 13 13 12 11 12 9 10 11 9 10 12 12 8 10 6 5 0 1 2 0 6 6 6 7 10 4 4 8 9 9 6 7 7 7 6 7 6 6 6
3 4 4 5 5 6 7 7 6 6 6 7 7 8 8 7 7 8 9 7 5 3 3 3 3 3 6 6 6 5 6 6 6 6 6 5 6 5 6 7 9 9 8 10 10 10 10 11 12 14 14 15 12 12 15 11 11 10 9 8 9 4 2 4 5 4 4 6 10 7 8 11 11 14 11 11 14 12 7 6 7 8 7 7 6
3 5 5 5 5 6 6 6 5 4 4 5 5 6 5 5 7 7 8 8 7 6 5 4 3 3 5 5 5 6 5 6 5 5 6 6 6 5 6 7 7 7 8 9 10 10 9 10 11 12 13 14 11 12 12 9 8 10 9 8 11 13 14 15 12 8 11 9 7 9 7 9 13 10 10 14 12 12 7 6 8 8 8 8 7
Wind_Direction
179 153 162 187 152 148 132 127 119 113 107 100 95 91 89 87 85 82 81 80 80 80 83 82 89 94 92 83 99 97 92 87 86 88 88 82 78 76 77 79 75 72 72 72 76 77 74 75 76 79 77 76 79 79 78 75 72 72 68 66 64 61 58 58 62 63 66 73 76 76 76 78 77 77 79 81 81 79 77 75 77 77 79 80 79
165 161 163 165 164 137 136 128 120 115 109 102 97 94 92 92 90 89 90 87 88 86 92 105 99 99 96 94 94 92 91 90 89 90 90 88 82 80 77 77 76 75 76 79 79 76 77 75 79 79 76 78 78 78 79 77 75 73 69 68 67 63 60 59 55 58 64 69 75 79 81 82 84 86 85 84 84 84 81 79 78 82 82 83 82
142 151 159 154 146 139 138 129 122 115 110 105 100 97 97 96 94 87 84 90 93 97 93 89 91 95 78 87 96 96 90 90 90 90 89 85 85 82 79 78 79 79 75 74 74 76 78 80 81 80 79 77 77 78 78 78 76 73 71 70 67 65 61 57 55 54 51 51 65 85 85 77 78 81 85 84 83 77 77 85 87 81 83 83 79
141 148 150 140 139 141 138 131 121 116 109 105 103 101 100 94 93 93 89 84 81 87 95 100 96 77 80 90 97 96 95 92 90 91 89 86 86 91 90 88 90 86 86 82 79 80 82 82 81 79 79 78 78 80 79 80 79 77 76 72 66 64 62 59 56 54 51 47 45 42 60 84 86 86 86 84 82 81 80 79 80 83 85 84 83
142 147 142 140 144 139 142 128 123 118 112 108 106 103 99 100 99 96 95 86 84 86 88 85 90 79 84 95 98 100 100 98 95 94 93 90 88 86 87 88 87 87 83 81 82 79 84 86 80 80 78 80 80 79 80 83 81 80 76 70 66 64 63 60 58 56 53 55 44 67 84 86 86 86 86 85 83 84 84 82 80 80 81 80 79
144 145 141 140 143 141 143 131 128 123 117 112 108 107 105 103 99 97 96 97 91 87 86 79 80 81 92 93 91 93 96 98 99 94 91 92 90 86 86 83 82 82 83 83 84 88 91 92 92 90 87 85 85 85 85 83 82 80 77 74 72 68 64 63 64 61 59 58 61 80 81 85 85 84 89 89 86 84 84 83 81 79 79 79 79
144 144 140 140 138 145 149 137 131 126 120 117 113 110 108 105 104 104 101 95 89 87 87 81 83 86 94 98 95 95 95 97 101 100 96 87 89 93 86 87 88 84 86 89 90 91 87 82 86 90 89 88 85 84 84 83 82 81 79 76 74 69 65 62 61 64 57 57 76 82 84 82 80 85 88 84 84 81 80 80 78 76 74 71 71
143 145 144 137 137 149 147 138 134 129 125 122 120 115 114 110 105 101 98 96 90 86 84 81 83 92 92 94 96 93 93 94 97 100 101 98 90 88 89 85 91 96 91 91 95 96 98 96 91 87 88 89 89 86 84 84 84 83 81 77 70 67 66 64 61 62 64 81 80 84 81 81 84 81 80 84 81 80 78 78 78 74 75 75 71
148 147 146 142 143 144 144 140 137 133 129 126 124 123 115 113 110 107 107 102 97 93 89 83 85 100 101 99 97 89 92 95 97 101 102 100 97 91 88 87 82 87 94 93 89 89 91 93 91 90 88 85 85 85 85 81 82 79 77 72 71 66 61 64 60 49 78 81 82 84 86 89 87 84 88 83 79 74 74 75 76 75 75 76 75
151 147 145 142 148 145 147 146 141 136 131 130 130 127 122 118 116 112 106 105 105 99 95 92 90 90 86 91 91 94 91 94 100 103 103 102 99 94 91 91 87 84 82 91 99 98 99 95 92 90 87 85 84 86 85 83 79 77 76 76 73 68 64 59 55 56 77 81 79 77 75 82 88 88 88 86 83 81 78 75 77 78 77 75 75
155 150 145 144 150 148 150 150 143 137 135 134 133 129 125 123 122 116 113 109 106 106 105 99 94 90 95 100 100 97 98 99 103 108 110 107 99 99 98 89 88 85 86 89 87 88 88 88 93 92 89 87 87 88 87 84 82 78 79 77 72 70 64 63 64 78 75 73 78 82 73 73 83 88 89 87 87 85 83 83 82 81 77 73 73
159 145 145 144 149 150 154 149 144 141 139 140 136 132 129 126 123 120 115 114 110 106 102 102 99 95 96 100 100 102 101 105 107 110 112 109 104 100 95 88 86 91 95 92 90 91 90 91 92 91 89 89 87 88 89 85 85 86 86 79 76 71 70 66 74 82 82 79 70 78 79 81 87 90 87 89 88 85 83 82 83 81 79 77 74
160 146 147 147 151 152 150 150 149 144 145 144 140 135 135 131 127 124 119 114 110 107 109 106 104 104 103 102 101 98 101 105 106 112 116 113 102 96 96 94 94 97 96 89 88 88 91 92 92 95 93 90 89 90 90 89 90 90 87 83 79 75 74 69 81 82 83 83 83 80 80 81 85 89 89 88 86 85 82 79 77 77 78 77 77
159 151 148 149 151 150 151 151 151 147 148 148 143 139 141 136 133 128 122 117 115 113 109 106 104 103 103 104 104 104 105 106 110 115 121 113 106 103 96 98 101 99 96 97 98 100 100 99 98 97 97 97 97 97 98 97 97 94 89 80 76 75 74 70 77 83 83 84 80 75 80 91 84 84 85 84 84 82 80 79 78 77 77 76 76
161 157 149 148 156 153 150 150 151 150 150 147 144 142 145 143 137 132 126 122 117 116 112 111 112 111 109 108 107 110 111 111 114 117 119 116 112 112 108 103 104 102 98 98 97 99 102 101 100 100 99 101 101 101 101 100 97 89 82 78 72 63 63 80 75 79 82 81 86 88 79 84 87 81 80 82 83 82 82 83 81 79 77 78 78
163 162 150 154 158 144 150 152 154 150 146 145 144 145 144 144 138 136 131 124 120 118 116 115 112 112 113 113 115 117 116 114 113 118 118 121 115 105 104 106 106 107 105 103 100 98 97 98 102 102 104 105 104 104 101 98 88 83 79 75 71 69 70 79 82 81 78 78 78 81 88 82 84 84 82 79 81 83 85 85 84 81 81 81 81
162 161 162 161 161 146 150 157 158 143 140 143 147 144 138 143 137 136 134 127 124 122 124 121 118 118 119 120 119 115 116 119 120 121 123 123 114 112 109 114 111 111 106 105 103 103 103 104 105 107 108 106 107 104 101 90 85 83 80 78 78 75 79 80 79 79 80 70 69 81 91 100 91 89 89 88 88 88 85 85 85 86 85 82 83
165 165 167 166 162 149 152 157 150 136 135 141 145 141 138 140 134 132 131 128 127 127 127 127 121 112 105 102 104 109 113 116 119 116 114 110 97 106 110 112 114 113 111 110 108 107 106 106 108 107 108 107 105 102 96 89 86 84 83 81 78 81 81 79 81 83 80 82 84 80 77 79 93 90 91 92 92 92 90 89 89 88 86 84 81
165 170 173 173 172 153 155 154 155 150 144 138 132 141 139 137 134 131 130 130 124 121 114 108 109 109 104 100 98 92 88 88 82 89 90 68 97 108 108 115 118 117 115 114 112 112 109 110 110 109 106 105 100 91 90 89 88 87 83 81 80 81 80 81 77 82 83 89 93 93 93 86 85 92 97 98 99 96 93 93 90 88 87 87 87
179 170 177 182 176 163 160 156 159 159 151 143 138 141 138 137 138 133 133 129 124 118 112 111 110 108 106 103 99 95 88 81 77 77 73 79 103 113 120 128 123 124 119 117 113 116 114 111 110 110 108 104 99 87 85 89 91 87 85 78 85 85 84 87 86 89 96 97 101 102 104 100 101 102 101 99 98 95 94 92 91 90 92 92 90
185 181 184 178 179 169 165 158 163 170 166 160 155 153 148 138 139 136 131 129 123 117 113 109 108 108 108 105 100 95 92 85 81 74 71 66 93 114 120 117 118 125 123 121 117 116 115 114 111 109 105 94 90 82 67 78 81 85 84 82 92 90 88 92 96 97 100 105 104 98 98 104 102 98 99 98 97 99 97 95 93 93 92 91 91
186 190 193 173 181 178 170 164 160 161 171 168 165 160 153 146 151 146 139 129 119 120 118 118 115 109 108 105 102 104 100 97 89 82 63 67 84 93 98 105 115 117 118 118 118 115 117 115 112 101 88 83 74 79 73 64 60 69 75 91 93 96 94 94 97 102 103 105 109 106 103 103 104 105 104 103 100 97 96 96 96 96 94 91 88
192 191 193 179 180 186 172 169 165 166 169 168 164 160 161 157 155 147 138 132 133 130 130 126 125 115 108 107 111 108 106 98 88 78 68 70 83 90 92 93 99 103 106 114 117 117 115 110 97 86 83 76 74 75 70 69 71 60 76 84 97 99 103 104 106 102 99 100 108 114 107 104 105 107 106 105 104 103 101 98 97 96 94 90 92
194 191 188 181 175 190 185 171 170 170 167 168 166 163 165 162 157 149 148 148 144 144 142 141 140 134 124 119 119 116 109 104 93 84 82 78 80 77 76 77 79 86 100 105 111 112 108 90 80 82 78 67 78 74 76 72 67 55 60 71 91 102 103 106 96 95 106 108 110 108 111 117 115 112 111 108 106 104 101 100 99 101 99 98 94
187 173 179 193 187 185 182 177 166 169 170 165 166 169 165 156 159 152 144 150 145 151 148 146 145 145 139 130 126 121 114 110 101 94 87 92 85 86 83 80 83 82 79 70 71 78 86 92 84 74 79 84 82 74 78 79 64 58 53 47 57 65 83 79 79 92 104 112 108 106 124 123 116 115 113 113 110 108 108 106 104 101 100 102 101
177 187 192 190 192 188 183 175 170 171 175 173 171 165 164 167 161 154 149 151 150 157 156 156 153 152 149 140 134 124 125 117 116 104 102 104 101 98 92 96 92 87 74 91 91 99 98 96 93 88 89 84 83 85 75 73 77 65 58 42 36 38 43 64 82 95 108 114 122 133 139 103 113 115 118 117 117 113 111 110 108 107 110 108 107
196 204 191 193 185 187 186 178 179 173 182 175 176 169 179 172 167 156 153 152 151 157 167 164 164 159 156 152 144 142 134 135 125 122 116 118 114 117 114 110 108 102 101 114 112 105 103 99 95 94 96 95 88 86 89 90 86 89 81 61 38 31 33 49 67 83 101 116 118 110 107 127 130 129 126 126 122 120 118 114 112 112 106 106 106
203 200 199 197 187 190 183 183 189 184 182 177 187 183 188 182 176 162 165 159 157 165 161 176 164 166 166 162 150 147 148 144 139 136 130 129 124 123 124 121 115 113 122 123 125 118 104 98 104 100 99 92 101 96 95 96 93 90 93 79 61 49 32 20 30 41 73 102 118 114 115 114 117 124 125 124 124 121 119 117 114 115 117 114 109
209 202 200 197 200 190 183 190 191 190 186 179 189 190 190 188 173 170 172 159 163 169 155 155 173 174 174 168 160 148 149 146 147 144 144 134 131 137 137 129 126 129 134 132 129 125 118 119 119 121 121 121 115 104 96 84 91 91 94 89 75 66 42 22 16 11 25 47 67 119 137 136 135 135 139 134 130 130 131 127 121 118 120 116 113
209 202 196 201 196 189 191 194 193 192 188 188 194 193 193 192 183 173 176 165 173 170 159 159 166 178 176 179 173 159 159 156 152 152 153 149 142 137 136 136 136 138 143 136 141 130 132 130 124 124 124 119 115 113 113 100 83 82 77 98 84 71 57 30 19 5 5 25 46 49 46 149 149 148 144 138 137 136 132 129 133 131 120 118 119
201 206 203 200 185 185 196 195 195 189 183 203 196 193 192 199 187 176 162 180 171 163 169 164 158 171 178 180 178 172 155 158 152 156 157 152 153 148 147 137 138 146 147 132 139 133 131 133 139 136 137 130 116 117 115 108 99 84 81 78 84 87 74 54 38 11 359 9 22 25 34 30 98 137 144 142 144 146 145 141 138 133 130 125 123
207 208 202 189 188 193 192 195 195 196 190 192 208 203 197 199 191 183 189 182 174 176 172 176 171 166 166 177 177 170 169 164 160 160 160 158 158 155 146 156 149 147 149 143 136 135 127 118 107 99 106 107 112 109 102 117 107 93 89 95 97 92 77 61 59 41 13 359 1 22 25 8 22 48 109 113 142 140 142 144 141 135 134 132 131
215 206 201 195 197 190 193 193 190 188 195 193 202 218 209 196 205 202 179 174 188 172 176 175 177 174 165 169 175 167 173 171 171 164 155 160 155 154 158 164 158 153 148 142 131 130 128 124 115 118 111 109 107 105 102 100 111 111 87 59 59 76 69 41 46 47 33 13 359 1 25 19 8 22 43 138 125 142 150 146 141 143 144 137 133
201 202 200 211 204 202 198 191 192 189 192 198 190 204 201 194 186 196 199 184 178 180 186 185 177 175 178 169 171 176 174 172 170 171 167 158 161 166 164 164 165 154 147 149 148 151 144 139 137 135 134 139 135 128 133 122 95 99 92 89 71 49 46 61 39 30 24 24 355 354 13 30 32 18 29 49 139 162 162 156 155 150 149 147 142
187 197 206 206 199 211 205 210 208 214 205 210 203 212 206 185 177 182 192 186 196 192 185 182 179 181 180 189 183 174 182 176 173 170 174 170 171 173 177 173 161 161 157 165 155 157 153 152 152 143 141 137 134 136 134 117 127 116 92 91 95 103 86 70 43 40 39 23 2 347 346 39 38 73 17 104 37 359 174 163 166 162 159 150 154
205 203 203 193 206 204 203 208 197 204 203 209 211 211 216 217 192 181 188 186 181 198 184 180 182 181 183 178 179 179 183 186 188 178 172 176 173 177 182 169 170 165 166 164 163 161 164 157 170 153 149 155 149 139 124 123 106 90 83 83 87 82 91 81 49 38 30 50 39 353 342 350 9 55 13 62 52 43 58 144 165 183 166 165 163
207 197 198 196 207 205 204 206 208 209 201 193 193 196 204 209 208 198 197 192 196 189 187 182 181 181 181 181 186 185 184 182 181 192 183 179 187 181 175 174 179 176 171 171 175 171 163 158 167 187 168 153 160 144 140 138 127 109 85 57 28 37 89 91 117 84 47 91 97 0 341 329 346 356 90 44 71 57 62 70 62 56 119 176 172
207 205 200 199 206 200 204 209 212 210 212 211 213 207 197 206 196 196 177 191 196 188 185 188 193 188 184 193 191 190 188 185 179 178 186 191 192 189 170 175 182 180 171 172 178 169 172 170 165 177 175 160 165 162 156 139 123 112 77 42 18 12 7 1 353 12 117 132 145 179 302 285 290 305 23 112 90 87 77 66 72 71 65 35 171
205 201 199 203 200 202 202 209 210 208 208 204 202 207 207 232 231 187 182 193 202 191 168 182 207 191 191 190 189 191 189 187 185 189 194 190 186 185 172 161 185 198 178 175 171 169 174 190 165 148 116 135 153 154 139 131 119 97 61 27 23 27 1 348 335 327 38 334 286 319 287 305 313 329 327 16 99 119 94 95 142 133 58 54 52
199 194 199 197 203 202 200 204 206 202 198 196 181 192 198 221 226 222 222 219 223 212 204 201 185 216 186 173 178 181 187 192 191 193 201 195 194 182 170 170 177 184 190 184 184 185 179 174 177 158 150 126 121 128 136 131 100 83 74 54 48 14 13 351 322 317 318 329 324 321 295 327 323 322 323 333 334 93 112 113 131 94 100 52 54
200 195 197 204 202 199 186 204 197 183 188 192 189 185 190 198 217 220 221 218 220 222 220 213 210 208 208 183 179 191 193 193 190 187 193 177 176 171 164 166 176 191 205 214 169 138 151 180 156 174 149 139 145 152 165 142 132 97 70 83 12 104 209 263 297 292 295 304 300 279 303 280 263 277 312 323 325 338 104 145 131 139 113 135 92
210 194 203 204 196 186 194 196 175 189 194 195 192 192 196 200 195 203 206 203 198 203 219 214 217 217 216 210 198 189 188 193 194 189 186 180 177 182 182 179 177 188 187 192 201 177 163 158 152 154 234 175 163 167 167 148 188 185 165 192 305 268 209 226 228 222 220 243 263 271 275 274 273 280 307 292 285 251 235 186 169 165 152 160 134
190 197 201 179 185 190 196 183 186 189 196 190 185 199 198 196 196 197 199 201 217 207 211 209 207 217 214 202 202 201 188 191 193 197 191 195 198 190 184 176 181 178 183 190 182 187 188 174 174 175 163 273 203 181 178 192 170 135 106 98 217 218 240 243 221 229 183 207 218 244 229 260 269 289 291 281 265 245 222 208 198 178 180 170 145
188 186 185 189 185 192 187 183 185 189 190 191 192 189 172 139 112 110 152 161 175 138 143 90 195 201 218 199 204 202 203 189 187 194 198 194 193 196 189 186 186 185 193 190 188 190 185 187 185 180 166 171 193 204 215 211 157 145 172 201 129 167 323 237 219 216 168 189 203 216 192 214 236 260 259 251 246 251 236 225 207 190 193 178 169
196 187 183 187 185 186 183 180 177 185 186 182 182 157 134 130 119 80 85 86 69 130 167 210 207 206 216 199 216 199 214 227 191 188 193 193 188 187 185 191 187 189 190 194 198 201 195 194 184 179 185 185 183 179 210 229 228 230 121 127 113 185 226 245 177 222 144 214 219 209 216 210 206 214 233 251 258 257 265 251 228 209 194 192 187
197 195 181 178 173 177 174 173 171 179 185 183 172 164 171 168 163 163 165 177 193 179 200 209 204 209 214 202 170 189 211 213 204 207 204 196 192 194 198 198 197 196 193 192 193 186 187 191 195 194 190 193 181 165 199 226 241 244 226 285 334 216 198 158 147 235 53 232 201 197 207 207 201 217 215 232 234 239 243 258 251 236 208 203 196
204 176 170 174 172 171 175 175 176 183 179 172 168 166 168 178 185 191 195 198 207 215 214 212 213 215 213 210 206 184 198 200 214 205 198 195 203 198 192 192 194 200 199 191 188 192 195 198 193 198 200 180 165 195 198 203 215 255 247 223 133 324 330 138 210 66 259 180 226 214 215 194 199 210 227 232 227 234 240 251 254 251 240 225 215
179 164 167 169 172 174 173 175 170 165 168 163 171 180 180 185 189 199 202 206 210 213 196 208 198 181 189 202 193 197 198 204 209 208 206 202 191 191 194 203 201 199 191 196 198 197 192 195 197 205 198 194 193 203 203 192 189 219 218 223 181 14 330 19 48 202 210 190 222 221 299 212 221 228 212 219 217 218 232 234 244 247 241 227 221
160 171 173 171 160 154 150 143 150 157 170 177 178 190 189 185 191 193 204 216 208 204 145 169 191 190 206 210 206 209 205 205 212 212 206 205 194 193 182 190 199 205 201 209 206 199 200 196 192 194 201 196 198 206 199 200 207 224 184 226 218 206 34 359 353 167 203 212 245 194 220 158 258 250 226 186 211 201 213 217 222 235 238 236 218
157 130 123 127 128 128 135 143 157 168 170 179 186 191 194 186 194 201 209 211 190 168 143 154 183 169 196 212 213 215 218 220 217 216 221 214 210 198 196 197 199 197 193 208 216 212 205 205 208 209 208 206 208 208 212 209 207 216 204 215 209 182 298 293 245 212 271 226 242 207 209 194 216 236 222 221 221 199 200 201 213 220 223 229 230
83 116 118 120 119 125 130 144 158 143 154 172 182 194 200 201 210 209 213 216 199 186 180 207 187 193 214 221 216 220 216 222 217 220 210 213 225 212 207 206 203 202 199 202 208 210 210 209 207 208 216 216 213 212 215 216 203 211 217 209 209 204 204 213 214 196 208 214 234 247 224 202 217 243 228 221 217 192 195 199 215 213 210 216 222